Tracking 28790 objects as of 18-Apr-2024
HD Live streaming from Space Station
objects crossing your sky now

FLOCK 4S 9

Track FLOCK 4S 9 now!
10-day predictions
FLOCK 4S 9 is classified as:


NORAD ID: 47478
Int'l Code: 2021-006BT
Perigee: 438.7 km
Apogee: 446.1 km
Inclination: 97.3 °
Period: 93.3 minutes
Semi major axis: 6813 km
RCS: Unknown
Launch date: January 24, 2021
Source: United States (US)
Launch site: ()
Your satellite tracking list
Your tracking list is empty




NASA's NSSDC Master Catalog

Two Line Element Set (TLE):
1 47478U 21006BT  24109.13006781  .00054968  00000-0  12134-2 0  9996
2 47478  97.3360 172.3252 0005398  90.8339 269.3527 15.43683309179664
Source of the keplerian elements: AFSPC